Weather History for KYIP - July, 2013

Change the Weather History Date:

Thursday, July 4, 2013

  Actual Average Record
Temperature  
Mean Temperature 78 °F -  
Max Temperature 84 °F 83 °F 104 °F (2012)
Min Temperature 71 °F 62 °F 48 °F (2008)
Cooling Degree Days 12    
Growing Degree Days 28 (Base 50)    
Moisture  
Dew Point 65 °F    
Average Humidity 67    
Maximum Humidity 84    
Minimum Humidity 47    
Precipitation  
Precipitation 0.00 in - - ()
Sea Level Pressure  
Sea Level Pressure 30.10 in    
Wind  
Wind Speed 5 mph (SSW)    
Max Wind Speed 14 mph    
Max Gust Speed 16 mph    
Visibility 10 miles    
Events      
Averages and records for this station are not official NWS values.
T = Trace of Precipitation, MM = Missing Value Source: NWS Daily Summary

Daily Weather History Graph

Daily Weather History Graph

Search for Another Location

Airport or City:

Trip Planner

Search our weather history database for the weather conditions in past years. The results will help you decide how hot, cold, wet, or windy it might be!

Date:

Astronomy

Jul. 04, 2013 Rise Set
Actual Time 6:03 AM EDT 9:13 PM EDT
Civil Twilight 5:28 AM EDT 9:47 PM EDT
Nautical Twilight 4:44 AM EDT 10:31 PM EDT
Astronomical Twilight 3:51 AM EDT 11:24 PM EDT
Moon 3:20 AM EDT (7/4) 6:15 PM EDT (7/4)
Length of Visible Light 16h 18m
Length of Day
15h 10m
Waning Crescent, 11% of the Moon is Illuminated
Jul 4
Waning Crescent
Jul 8
New
Jul 15
First Quarter
Jul 22
Full
Jul 29
Last Quarter

Hourly Weather History & Observations

Time (EDT) Temp. Heat Index Dew Point Humidity Pressure Visibility Wind Dir Wind Speed Gust Speed Precip Events Conditions
12:53 AM 73.0 °F - 66.9 °F 81% 30.08 in 10.0 mi Calm Calm - N/A   Mostly Cloudy
1:53 AM 73.9 °F - 68.0 °F 82% 30.07 in 10.0 mi Calm Calm - N/A   Overcast
2:53 AM 73.0 °F - 66.9 °F 81% 30.08 in 10.0 mi South 8.1 mph - N/A   Mostly Cloudy
3:53 AM 71.1 °F - 66.0 °F 84% 30.08 in 10.0 mi South 3.5 mph - N/A   Partly Cloudy
4:53 AM 73.0 °F - 66.0 °F 79% 30.08 in 10.0 mi South 6.9 mph - N/A   Scattered Clouds
5:53 AM 72.0 °F - 66.9 °F 84% 30.09 in 10.0 mi South 4.6 mph - N/A   Clear
6:53 AM 72.0 °F - 66.9 °F 84% 30.10 in 8.0 mi South 5.8 mph - N/A   Scattered Clouds
7:53 AM 73.0 °F - 66.9 °F 81% 30.12 in 10.0 mi SSW 8.1 mph - N/A   Clear
8:53 AM 75.0 °F - 66.0 °F 73% 30.12 in 10.0 mi SW 8.1 mph - N/A   Clear
9:53 AM 79.0 °F - 64.9 °F 62% 30.14 in 10.0 mi SSW 8.1 mph - N/A   Clear
10:53 AM 79.0 °F - 63.0 °F 58% 30.12 in 10.0 mi West 8.1 mph - N/A   Mostly Cloudy
11:53 AM 81.0 °F 82.5 °F 64.0 °F 56% 30.13 in 10.0 mi SSW 11.5 mph - N/A   Scattered Clouds
12:53 PM 82.9 °F 83.7 °F 62.1 °F 49% 30.13 in 10.0 mi SSW 10.4 mph - N/A   Partly Cloudy
1:53 PM 84.0 °F 84.5 °F 62.1 °F 47% 30.12 in 10.0 mi SSW 13.8 mph - 0.00 in   Partly Cloudy
2:53 PM 84.0 °F 84.9 °F 63.0 °F 49% 30.11 in 10.0 mi WSW 12.7 mph 16.1 mph N/A   Scattered Clouds
3:53 PM 82.9 °F 83.7 °F 62.1 °F 49% 30.11 in 10.0 mi WSW 10.4 mph - N/A   Partly Cloudy
4:53 PM 82.9 °F 83.7 °F 62.1 °F 49% 30.10 in 10.0 mi WSW 9.2 mph - N/A   Clear
5:53 PM 81.0 °F 81.7 °F 61.0 °F 50% 30.09 in 10.0 mi WSW 6.9 mph - N/A   Clear
6:53 PM 81.0 °F 81.7 °F 61.0 °F 50% 30.08 in 10.0 mi SW 5.8 mph - N/A   Mostly Cloudy
7:53 PM 80.1 °F 81.9 °F 64.9 °F 60% 30.08 in 10.0 mi South 4.6 mph - N/A   Scattered Clouds
8:53 PM 77.0 °F - 66.9 °F 71% 30.08 in 10.0 mi SE 4.6 mph - N/A   Overcast
9:53 PM 75.9 °F - 66.9 °F 74% 30.09 in 10.0 mi SSE 5.8 mph - N/A   Mostly Cloudy
10:53 PM 73.9 °F - 68.0 °F 82% 30.10 in 8.0 mi SE 4.6 mph - N/A   Overcast
11:53 PM 73.0 °F - 68.0 °F 84% 30.10 in 8.0 mi Calm Calm - N/A   Mostly Cloudy